Location: East Guldeford
(50.9500°N, 0.7500°E)
Time: 09:47:04
(UTC+00:00)

Cosmos 1151 Rocket - Pass Details

Date: 12 May 2021
Orbit: 592 x 616 km, 82.5° (Epoch: 17 June)

Event Time Altitude Azimuth Distance (km) Brightness Sun altitude
Rises 20:09:08 0° 172° (S) 2,865 6.0 -5.1°
Reaches altitude 10° 20:11:23 10° 167° (SSE) 1,968 5.2 -5.4°
Maximum altitude 20:15:34 47° 94° (E) 823 3.4 -5.9°
Drops below altitude 10° 20:19:47 10° 21° (NNE) 1,991 5.9 -6.4°
Sets 20:22:05 0° 15° (NNE) 2,903 6.9 -6.7°
